Flag for Russia Weather past 2 weeks in Voronezh, Russia

Now
41 °F

Partly sunny.


Feels Like: 35 °F
Forecast: 33 / 51 °F
Wind: 10 mph from Northwest

Location: Voronez

Current Time: Oct 2, 2014 at 9:28:34 AM

Latest Report: Oct 2, 2014 at 9:00 AM


Visibility: N/A

Pressure: 30.36 "Hg

Humidity: 45%

Dew point: 21 °F

Location of VoronezhLocation

Historic Weather in Voronezh — Graph

°F

Voronezh temperature yesterday

Maximum temperature yesterday: 50 °F (at 1:30 PM)
Minimum temperature yesterday: 37 °F (at 7:30 AM)
Average temperature yesterday: 44 °F

Past Weeks' High & Low Weather Summary

 TemperatureHumidityPressure
High68 °F (Sep 21, 2:30 PM)100% (Sep 27, 7:00 AM)30.45 "Hg (Sep 27, 7:00 AM)
Low30 °F (Sep 18, 5:30 AM)19% (Sep 22, 3:30 PM)29.45 "Hg (Sep 24, 8:00 AM)
Average51 °F60%30.05 "Hg
* Reported Sep 17 8:00 AM — Oct 2 8:00 AM, Voronezh, Weather by CustomWeather, © 2014

Note: Actual official high and low records may vary slightly from our data, if they occured in-between our weather recording intervals... More about our weather records

Advertising

Voronezh weather history for previous 24 hours

 ConditionsComfort  
Time TempWeatherWind HumidityBarometerVisibility
8:00 AM
Oct 2
41 °FPassing clouds.8 mph45%30.33 "HgN/A
7:30 AM41 °FPassing clouds.13 mph45%30.33 "HgN/A
7:00 AM41 °FPassing clouds.10 mph49%30.33 "HgN/A
6:30 AM41 °FClear.10 mph53%30.33 "Hg10 mi
6:00 AM41 °FClear.10 mph53%30.30 "Hg10 mi
5:30 AM41 °FClear.8 mph49%30.30 "Hg10 mi
5:00 AM41 °FPassing clouds.8 mph49%30.30 "HgN/A
4:30 AM41 °FClear.8 mph49%30.30 "Hg10 mi
4:00 AM41 °FClear.8 mph53%30.30 "Hg10 mi
3:30 AM41 °FClear.6 mph53%30.27 "Hg10 mi
3:00 AM39 °FClear.6 mph56%30.27 "Hg10 mi
2:30 AM39 °FClear.6 mph56%30.27 "Hg10 mi
2:00 AM37 °FClear.8 mph60%30.27 "Hg10 mi
1:30 AM39 °FClear.8 mph56%30.27 "Hg10 mi
1:00 AM39 °FClear.10 mph52%30.24 "Hg10 mi
12:30 AM41 °FClear.10 mph49%30.24 "Hg10 mi
12:00 AM41 °FClear.13 mph49%30.24 "Hg10 mi
11:30 PM
Oct 1
41 °FClear.8 mph49%30.24 "Hg10 mi
11:00 PM41 °FClear.10 mph49%30.24 "Hg10 mi
10:30 PM43 °FClear.10 mph46%30.21 "Hg10 mi
10:00 PM43 °FClear.15 mph42%30.21 "Hg10 mi
9:30 PM45 °FClear.15 mph42%30.21 "Hg10 mi
9:00 PM43 °FClear.15 mph46%30.21 "Hg10 mi
8:30 PM45 °FClear.10 mph42%30.18 "Hg10 mi
8:00 PM46 °FPartly sunny.13 mph43%30.18 "HgN/A
7:30 PM46 °FPartly sunny.10 mph43%30.15 "HgN/A
7:00 PM46 °FPartly sunny.10 mph43%30.15 "HgN/A
6:30 PM46 °FPartly sunny.13 mph46%30.12 "HgN/A
6:00 PM48 °FPartly sunny.17 mph43%30.12 "HgN/A
5:30 PM48 °FPartly sunny.17 mph46%30.09 "HgN/A
5:00 PM48 °FPartly sunny.15 mph50%30.09 "HgN/A
4:30 PM48 °FPartly sunny.17 mph50%30.09 "HgN/A
4:00 PM48 °FPartly sunny.17 mph54%30.09 "HgN/A
3:30 PM50 °FPartly sunny.13 mph54%30.07 "HgN/A
3:00 PM48 °FPartly sunny.13 mph58%30.07 "HgN/A
2:30 PM50 °FPartly sunny.20 mph50%30.07 "HgN/A
2:00 PM48 °FPartly sunny.8 mph66%30.04 "HgN/A
1:30 PM50 °FPartly sunny.15 mph54%30.04 "HgN/A
1:00 PM48 °FPartly sunny.13 mph62%30.04 "HgN/A
12:30 PM48 °FPartly sunny.13 mph62%30.04 "HgN/A
12:00 PM48 °FPartly sunny.10 mph66%30.04 "HgN/A
11:30 AM48 °FPartly sunny.15 mph66%30.04 "HgN/A
11:00 AM46 °FBroken clouds.13 mph71%30.01 "HgN/A
10:30 AM45 °FPartly sunny.10 mph76%30.01 "HgN/A
10:00 AM43 °FPartly sunny.8 mph81%30.01 "HgN/A
9:30 AM43 °FPartly sunny.10 mph81%30.01 "HgN/A
9:00 AM41 °FPartly sunny.10 mph87%30.01 "HgN/A
Weather by CustomWeather, © 2014

See weather overviewHow to use our weather pages